SES-10 (42432 NORAD) Tracking and Keplerian Element Data

This shows tracking and keplerian element data for the satellite.

Feedback or suggestion? Click here.




ElementValue
Catalog42432
NameSES-10
Epoch Orbit1645
Epoch Day269.89369337
Epoch Year2021
RAAN237.904
Inclination0.0161
Eccentricity0.0002665
Argument of Perigee311.577
Mean Anonmoly71.2759
Mean Motion1.00272566
Decay Rate-2.74E-06
L11 42432U 17017A 21269.89369337 -.00000274 00000-0 00000-0 0 9993
L22 42432 0.0161 237.9040 0002665 311.5770 71.2759 1.00272566 16459

Live tracking and technical data element details for SES-10 (NORAD 42432). SES-10 can be tracked NOW for your location showing map with azimuth and elevation plus other details from your city location.

Track the satellite on the map from your city or location and see movement details for azimuth, elevation, latitude, longitude, range, height, and movement on the map or in text.







IsCatalogInMostPopularTable: catalog: 42432, numindb: 590
Update: records affected: 1



GetName: 42432 SES-10

Hit Count: updated at: Tue, 28 Sep 2021 16:52:02 GMT